Home   Weather   Langkawi   Past weeks

Flag for Malaysia Past Weather in Langkawi, Malaysia — Yesterday and Last 2 Weeks

Now
88 °F

Partly sunny.


Feels Like: 102 °F
Forecast: 81 / 87 °F
Wind: 6 mph from Northwest

Location: Langkawi

Current Time: Sep 26, 2016 at 11:53:31 AM

Latest Report: Sep 26, 2016 at 11:00 AM


Visibility: N/A

Pressure: 29.83 "Hg

Humidity: 75%

Dew Point: 79 °F

Location of LangkawiLocation

Past Weather in Langkawi — Graph

°F

Langkawi Temperature Yesterday

Maximum temperature yesterday: 90 °F (at 2:00 PM)
Minimum temperature yesterday: 79 °F (at 6:00 AM)
Average temperature yesterday: 84 °F

High & Low Weather Summary for the Past Weeks

 TemperatureHumidityPressure
High91 °F (Sep 16, 3:00 PM)94% (Sep 13, 5:00 AM)29.89 "Hg (Sep 13, 5:00 AM)
Low79 °F (Sep 12, 2:00 AM)63% (Sep 16, 3:00 PM)29.68 "Hg (Sep 24, 5:00 PM)
Average84 °F79%29.79 "Hg
* Reported Sep 11 10:00 AM — Sep 26 10:00 AM, Langkawi, Weather by CustomWeather, © 2016

Note: Actual official high and low records may vary slightly from our data, if they occured in-between our weather recording intervals... More about our weather records

Advertising

Langkawi Weather History for the Previous 24 Hours

Scroll right to see more
 ConditionsComfort  
Time TempWeatherWind HumidityBarometerVisibility
10:00 AM
Mon, Sep 26
86 °FPartly sunny.6 mph79%29.83 "HgN/A
9:00 AM84 °FPartly sunny.6 mph79%29.83 "HgN/A
8:00 AM82 °FPartly sunny.1 mph84%29.80 "HgN/A
7:00 AM82 °FPassing clouds.3 mph84%29.77 "HgN/A
6:00 AM81 °FPassing clouds.2 mph84%29.77 "HgN/A
5:00 AM82 °FPassing clouds.5 mph84%29.77 "HgN/A
4:00 AM82 °FPassing clouds.5 mph84%29.77 "HgN/A
3:00 AM82 °FPassing clouds.6 mph84%29.77 "HgN/A
2:00 AM82 °FPassing clouds.5 mph84%29.80 "HgN/A
1:00 AM82 °FPassing clouds.5 mph84%29.83 "HgN/A
12:00 AM82 °FPassing clouds.3 mph89%29.83 "HgN/A
11:00 PM
Sun, Sep 25
82 °FPassing clouds.2 mph89%29.83 "HgN/A
10:00 PM84 °FPassing clouds.3 mph84%29.80 "HgN/A
9:00 PM84 °FPassing clouds.6 mph79%29.77 "HgN/A
8:00 PM84 °FPassing clouds.5 mph79%29.74 "HgN/A
7:00 PM86 °FPartly sunny.6 mph79%29.74 "HgN/A
6:00 PM88 °FPartly sunny.7 mph75%29.71 "HgN/A
5:00 PM88 °FPartly sunny.7 mph75%29.71 "HgN/A
4:00 PM90 °FPartly sunny.7 mph71%29.71 "HgN/A
3:00 PM90 °FPartly sunny.8 mph71%29.74 "HgN/A
2:00 PM90 °FPartly sunny.7 mph71%29.74 "HgN/A
1:00 PM88 °FPartly sunny.7 mph75%29.77 "HgN/A
12:00 PM88 °FPartly sunny.6 mph75%29.80 "HgN/A
11:00 AM88 °FPartly sunny.7 mph75%29.80 "HgN/A
Weather by CustomWeather, © 2016

See weather overviewHow to use our weather pages